This is the latest recevied weather packets stored in our database for station/object KC5CAM-13. If no packets are shown the sender has not sent any weather packets the latest 1 day(s).
| Time | Temp. | Humidity | Pressure | Rain* | Wind** | Luminosity | Snow |
|---|---|---|---|---|---|---|---|
| 1836274743 | 27.78° C | 60% | 1016.9 hPa | 0 mm | 1.34 m/s, 166° | 0 W/m² | - |
| 1836274441 | 28.33° C | 59% | 1017 hPa | 0 mm | 0.89 m/s, 150° | 0 W/m² | - |
| 1836274294 | 27.78° C | 59% | 1016.9 hPa | 0 mm | 1.34 m/s, 116° | 0 W/m² | - |
| 1836274140 | 27.78° C | 59% | 1017 hPa | 0 mm | 0.89 m/s, 142° | 0 W/m² | - |
| 1778047665 | 15° C | 79% | 1010.9 hPa | 0 mm | 0.45 m/s, 337° | 0 W/m² | - |
| 1778047363 | 15° C | 79% | 1011.1 hPa | 0 mm | 0.45 m/s, 346° | 0 W/m² | - |
| 1778047059 | 15° C | 79% | 1011.2 hPa | 0 mm | 0.45 m/s, 330° | 0 W/m² | - |
| 1778046756 | 15° C | 79% | 1011.2 hPa | 0 mm | 0 m/s | 0 W/m² | - |
| 1778046453 | 15° C | 79% | 1010.7 hPa | 0 mm | 0 m/s | 0 W/m² | - |
| 1778046149 | 15° C | 79% | 1011.2 hPa | 0 mm | 0.45 m/s, 322° | 0 W/m² | - |
| 1778045846 | 15° C | 79% | 1011 hPa | 0 mm | 0.45 m/s, 0° | 0 W/m² | - |
| 1778045545 | 15° C | 78% | 1010.9 hPa | 0 mm | 0.89 m/s, 310° | 0 W/m² | - |
| 1778045243 | 15° C | 79% | 1011.1 hPa | 0 mm | 0.89 m/s, 1° | 0 W/m² | - |
| 1778044941 | 15° C | 78% | 1011.2 hPa | 0 mm | 0 m/s | 0 W/m² | - |
| 1778044638 | 15° C | 78% | 1011.3 hPa | 0 mm | 0.45 m/s, 349° | 0 W/m² | - |
| 1778044334 | 15° C | 79% | 1011.2 hPa | 0 mm | 0.45 m/s, 308° | 0 W/m² | - |
| 1778044033 | 15° C | 79% | 1011.3 hPa | 0 mm | 0.89 m/s, 338° | 0 W/m² | - |
| 1778043729 | 15.56° C | 79% | 1011.2 hPa | 0 mm | 0.45 m/s, 0° | 0 W/m² | - |
| 1778043426 | 15.56° C | 80% | 1011.3 hPa | 0 mm | 0 m/s | 0 W/m² | - |
| 1778043122 | 15.56° C | 80% | 1011.2 hPa | 0 mm | 0.89 m/s, 250° | 0 W/m² | - |
| 1778042820 | 15.56° C | 81% | 1011.2 hPa | 0 mm | 0 m/s | 0 W/m² | - |
| 1778042517 | 15.56° C | 81% | 1011.2 hPa | 0 mm | 0.89 m/s, 344° | 0 W/m² | - |
| 1778042214 | 15.56° C | 81% | 1011.1 hPa | 0 mm | 0.89 m/s, 339° | 0 W/m² | - |
| 1778041912 | 15.56° C | 81% | 1011.3 hPa | 0 mm | 0.45 m/s, 335° | 0 W/m² | - |
| 1778041611 | 15.56° C | 81% | 1011.2 hPa | 0 mm | 0.45 m/s, 349° | 0 W/m² | - |
* Rain latest hour (hover to see other rain measurements)
** Current wind speed in m/s (hover to see current wind gust speed)